Eastsound, WA
on Tuesday, December 25, 2012

Tuesday
Previous Day Next Day
Daily Summary
 ActualAverage (KBLI)Record (KBLI)
Temperature
Mean Temperature °F 38°F  
Max Temperature 41°F 44°F 60°F (1980)
Min Temperature 35°F 32°F 7°F (1964)
Degree Days
Heating Degree Days 27 27  
Month to date heating degree days 665  
Cooling Degree Days 0 0  
Month to date cooling degree days 0  
Year to date cooling degree days 42  
Moisture
Dew Point 34°F   
Average Humidity 86    
Maximum Humidity 100    
Minimum Humidity 70    
Precipitation
Precipitation 0.10 in 0.12 in 1.37 in (1972)
Month to date precipitation 3.50  
Year to date precipitation 35.11  
Wind
Wind Speed 6 mph   
Max Wind Speed 12 mph   
Max Gust Speed 17 mph   
Visibility 9 miles   
Events Rain   

Key: T is trace of precipitation, MM is missing value
Source: NWS Daily Summary
Time(PST)TemperatureDew PointHumidity Pressure Visibility Wind DirectionWind SpeedGust SpeedPrecipitationEvents Conditions
12:15 AM 41.0°F 35.6°F 81% 30.03 in 10.0 miles East 5.8 mph - N/A   Clear
12:55 AM 39.2°F 35.6°F 87% 30.00 in 10.0 miles ENE 8.1 mph - N/A   Clear
1:15 AM 39.2°F 35.6°F 87% 29.99 in 10.0 miles ENE 8.1 mph - N/A   Scattered Clouds
1:35 AM 37.4°F 33.8°F 87% 29.99 in 10.0 miles ENE 6.9 mph - N/A   Mostly Cloudy
1:55 AM 37.4°F 33.8°F 87% 29.98 in 10.0 miles ENE 5.8 mph - N/A   Overcast
2:15 AM 37.4°F 33.8°F 87% 29.97 in 10.0 miles ENE 6.9 mph - N/A   Mostly Cloudy
2:35 AM 37.4°F 33.8°F 87% 29.96 in 10.0 miles NE 9.2 mph 16.1 mph N/A   Mostly Cloudy
2:55 AM 37.4°F 33.8°F 87% 29.94 in 10.0 miles NE 8.1 mph - N/A   Partly Cloudy
3:15 AM 37.4°F 32.0°F 81% 29.93 in 10.0 miles NNE 6.9 mph - N/A   Clear
3:35 AM 37.4°F 32.0°F 81% 29.91 in 10.0 miles NNE 4.6 mph - N/A   Clear
3:55 AM 37.4°F 32.0°F 81% 29.89 in 10.0 miles Calm Calm - N/A   Clear
4:15 AM 37.4°F 32.0°F 81% 29.88 in 10.0 miles East 3.5 mph - N/A   Clear
4:35 AM 37.4°F 32.0°F 81% 29.87 in 10.0 miles NE 4.6 mph - N/A   Clear
4:55 AM 37.4°F 32.0°F 81% 29.85 in 10.0 miles NE 6.9 mph - N/A   Clear
5:15 AM 37.4°F 32.0°F 81% 29.83 in 10.0 miles ENE 8.1 mph - N/A   Clear
5:35 AM 37.4°F 32.0°F 81% 29.82 in 10.0 miles ENE 5.8 mph - N/A   Clear
5:55 AM 39.2°F 30.2°F 70% 29.80 in 10.0 miles East 4.6 mph - N/A   Clear
6:15 AM 37.4°F 30.2°F 75% 29.80 in 10.0 miles ENE 6.9 mph - N/A   Clear
6:35 AM 37.4°F 30.2°F 75% 29.79 in 10.0 miles ENE 6.9 mph - N/A   Clear
6:55 AM 37.4°F 30.2°F 75% 29.78 in 10.0 miles ENE 3.5 mph - N/A   Clear
7:15 AM 39.2°F 30.2°F 70% 29.77 in 10.0 miles Calm Calm - N/A   Clear
7:55 AM 39.2°F 32.0°F 75% 29.75 in 10.0 miles East 3.5 mph - N/A   Clear
8:15 AM 39.2°F 30.2°F 70% 29.75 in 10.0 miles ENE 4.6 mph - N/A   Clear
8:35 AM 39.2°F 32.0°F 75% 29.74 in 9.0 miles East 4.6 mph - N/A Rain Light Rain
8:55 AM 37.4°F 32.0°F 81% 29.73 in 8.0 miles Calm Calm - N/A Rain Light Rain
9:15 AM 39.2°F 32.0°F 75% 29.73 in 5.0 miles ESE 3.5 mph - N/A Rain Light Rain
9:55 AM 39.2°F 35.6°F 87% 29.71 in 2.5 miles SE 6.9 mph - 0.01 in Rain Light Rain
10:15 AM 39.2°F 35.6°F 87% 29.70 in 2.5 miles ESE 8.1 mph 17.3 mph N/A Rain Rain
10:55 AM 39.2°F 35.6°F 87% 29.68 in 3.0 miles SSE 3.5 mph - 0.01 in Rain Light Rain
11:15 AM 39.2°F 35.6°F 87% 29.68 in 2.0 miles SE 6.9 mph - N/A Rain Rain
11:35 AM 39.2°F 35.6°F 87% 29.67 in 2.5 miles ESE 5.8 mph - 0.03 in Rain Rain
11:55 AM 39.2°F 35.6°F 87% 29.66 in 3.0 miles ESE 3.5 mph - 0.04 in Rain Light Rain
12:15 PM 37.4°F 35.6°F 93% 29.66 in 4.0 miles ENE 3.5 mph - 0.01 in Rain Light Rain
12:35 PM 37.4°F 35.6°F 93% 29.65 in 5.0 miles East 3.5 mph - 0.02 in Rain Light Rain
12:55 PM 37.4°F 35.6°F 93% 29.65 in 3.0 miles East 9.2 mph - 0.02 in Rain Rain
1:35 PM 37.4°F 35.6°F 93% 29.66 in 4.0 miles East 4.6 mph - 0.02 in Rain Light Rain
1:55 PM 37.4°F 35.6°F 93% 29.66 in 4.0 miles ENE 5.8 mph - 0.02 in Rain Light Rain
2:15 PM 35.6°F 33.8°F 93% 29.66 in 6.0 miles NE 8.1 mph - N/A Rain Light Rain
2:35 PM 35.6°F 35.6°F 100% 29.66 in 10.0 miles ENE 8.1 mph - N/A   Overcast
2:55 PM 37.4°F 35.6°F 93% 29.66 in 9.0 miles ENE 8.1 mph - N/A   Overcast
3:15 PM 37.4°F 37.4°F 100% 29.66 in 10.0 miles ENE 8.1 mph 16.1 mph N/A   Overcast
3:35 PM 37.4°F 35.6°F 93% 29.66 in 10.0 miles ENE 10.4 mph 16.1 mph N/A   Overcast
3:55 PM 37.4°F 35.6°F 93% 29.65 in 10.0 miles NE 11.5 mph 17.3 mph N/A   Overcast
4:15 PM 37.4°F 35.6°F 93% 29.65 in 10.0 miles ENE 9.2 mph - N/A   Overcast
4:35 PM 37.4°F 35.6°F 93% 29.65 in 10.0 miles ENE 6.9 mph - N/A   Mostly Cloudy
4:55 PM 37.4°F 35.6°F 93% 29.65 in 10.0 miles ENE 8.1 mph 16.1 mph N/A   Overcast
5:15 PM 37.4°F 35.6°F 93% 29.65 in 10.0 miles East 8.1 mph - N/A   Mostly Cloudy
5:35 PM 37.4°F 35.6°F 93% 29.64 in 10.0 miles East 10.4 mph - N/A   Mostly Cloudy
5:55 PM 37.4°F 35.6°F 93% 29.65 in 10.0 miles ENE 8.1 mph - N/A   Mostly Cloudy
6:15 PM 39.2°F 35.6°F 87% 29.64 in 10.0 miles ENE 5.8 mph - N/A   Mostly Cloudy
6:35 PM 39.2°F 35.6°F 87% 29.63 in 10.0 miles East 6.9 mph - N/A   Overcast
6:55 PM 39.2°F 35.6°F 87% 29.63 in 10.0 miles East 5.8 mph - N/A   Overcast
7:15 PM 39.2°F 35.6°F 87% 29.63 in 10.0 miles East 10.4 mph - N/A   Overcast
7:35 PM 39.2°F 35.6°F 87% 29.63 in 10.0 miles NE 10.4 mph 16.1 mph N/A   Overcast
8:15 PM 39.2°F 35.6°F 87% 29.62 in 10.0 miles East 5.8 mph - N/A   Overcast
8:35 PM 39.2°F 35.6°F 87% 29.63 in 10.0 miles East 5.8 mph - N/A   Overcast
8:55 PM 39.2°F 35.6°F 87% 29.63 in 10.0 miles East 6.9 mph - N/A   Overcast
9:15 PM 39.2°F 35.6°F 87% 29.63 in 10.0 miles ENE 8.1 mph - N/A   Overcast
9:35 PM 39.2°F 35.6°F 87% 29.64 in 10.0 miles ENE 4.6 mph - N/A   Overcast
9:55 PM 39.2°F 35.6°F 87% 29.64 in 10.0 miles ENE 9.2 mph - N/A   Overcast
10:15 PM 41.0°F 35.6°F 81% 29.65 in 10.0 miles ENE 6.9 mph - N/A   Overcast
10:35 PM 41.0°F 35.6°F 81% 29.65 in 10.0 miles East 5.8 mph - N/A   Overcast
10:55 PM 41.0°F 35.6°F 81% 29.65 in 10.0 miles ENE 6.9 mph - N/A   Overcast
11:15 PM 41.0°F 35.6°F 81% 29.66 in 10.0 miles ENE 9.2 mph - N/A   Overcast
11:35 PM 39.2°F 35.6°F 87% 29.67 in 10.0 miles Calm Calm - N/A   Overcast
11:55 PM 39.2°F 35.6°F 87% 29.67 in 10.0 miles Calm Calm - N/A   Overcast
Moon Phase
Dec. 25 Dec. 28 Jan. 04 Jan. 11 Jan. 18
Sunrise:08:03 AM (PST) Moon Rise:02:36 PM (PST)
Sunset:04:20 PM (PST) Moon Set:05:37 AM (PST)

Copyright © 2014 The Weather Underground, Inc.